QPF
0.00 0.00 0.00 0.00 0.01 0.01 0.00 0.00 0.00 0.00 0.02 0.05 0.05 0.00 0.02 0.02 0.00 0.01 0.04 0.02 0.01 0.00 0.00 0.01 0.07 0.04 0.01 0.02 0.05 0.07 0.02 0.01 0.00 0.00 0.00 0.00 0.00 0.00 0.00 0.00 0.00 0.00 0.01 0.00 0.00 0.00 0.00 0.00 0.00
0.00 0.00 0.00 0.01 0.00 0.00 0.00 0.00 0.00 0.00 0.00 0.02 0.02 0.01 0.01 0.00 0.00 0.00 0.02 0.01 0.00 0.00 0.00 0.00 0.02 0.03 0.03 0.02 0.05 0.04 0.01 0.00 0.00 0.01 0.01 0.00 0.00 0.00 0.00 0.00 0.00 0.01 0.00 0.00 0.00 0.00 0.00 0.00 0.00
0.00 0.00 0.00 0.01 0.00 0.00 0.00 0.00 0.00 0.00 0.00 0.00 0.00 0.00 0.00 0.00 0.00 0.00 0.00 0.00 0.00 0.00 0.00 0.00 0.00 0.00 0.00 0.01 0.02 0.01 0.00 0.00 0.00 0.00 0.01 0.00 0.00 0.00 0.00 0.00 0.00 0.00 0.00 0.00 0.00 0.00 0.00 0.00 0.00
0.00 0.00 0.00 0.00 0.00 0.00 0.00 0.00 0.00 0.00 0.00 0.00 0.00 0.00 0.00 0.00 0.00 0.00 0.00 0.00 0.00 0.00 0.00 0.00 0.00 0.00 0.00 0.00 0.00 0.00 0.00 0.00 0.00 0.00 0.00 0.00 0.00 0.00 0.00 0.00 0.00 0.00 0.00 0.00 0.00 0.00 0.00 0.00 0.00
0.00 0.00 0.00 0.00 0.00 0.00 0.00 0.00 0.00 0.00 0.00 0.00 0.00 0.00 0.00 0.00 0.00 0.00 0.00 0.00 0.00 0.00 0.00 0.00 0.00 0.01 0.00 0.00 0.00 0.00 0.00 0.00 0.00 0.00 0.00 0.00 0.00 0.00 0.00 0.00 0.00 0.00 0.00 0.00 0.00 0.00 0.00 0.00 0.00
0.00 0.00 0.01 0.00 0.00 0.00 0.00 0.00 0.00 0.00 0.00 0.00 0.00 0.00 0.00 0.00 0.00 0.00 0.00 0.00 0.00 0.00 0.00 0.00 0.00 0.00 0.00 0.00 0.00 0.00 0.00 0.00 0.00 0.00 0.00 0.00 0.00 0.00 0.00 0.00 0.00 0.00 0.00 0.00 0.00 0.00 0.00 0.00 0.00
0.00 0.00 0.01 0.00 0.00 0.00 0.00 0.00 0.00 0.00 0.00 0.00 0.00 0.00 0.00 0.00 0.00 0.00 0.00 0.00 0.00 0.00 0.00 0.00 0.00 0.00 0.00 0.00 0.00 0.00 0.00 0.00 0.00 0.00 0.00 0.01 0.01 0.00 0.01 0.01 0.00 0.00 0.00 0.00 0.00 0.00 0.00 0.00 0.00
0.00 0.00 0.01 0.01 0.00 0.00 0.00 0.00 0.00 0.00 0.00 0.00 0.00 0.00 0.00 0.00 0.00 0.00 0.00 0.00 0.00 0.00 0.00 0.00 0.00 0.00 0.00 0.00 0.00 0.00 0.00 0.00 0.00 0.00 0.00 0.00 0.03 0.09 0.09 0.01 0.02 0.01 0.00 0.00 0.00 0.01 0.01 0.00 0.01
0.00 0.00 0.01 0.01 0.00 0.00 0.01 0.00 0.00 0.00 0.00 0.00 0.00 0.00 0.00 0.00 0.00 0.00 0.00 0.00 0.00 0.00 0.00 0.00 0.00 0.00 0.00 0.00 0.00 0.00 0.00 0.00 0.00 0.00 0.00 0.02 0.09 0.15 0.08 0.00 0.01 0.04 0.02 0.00 0.01 0.04 0.05 0.06 0.04
0.00 0.00 0.01 0.01 0.01 0.00 0.02 0.02 0.00 0.00 0.00 0.00 0.00 0.00 0.00 0.00 0.00 0.00 0.00 0.00 0.00 0.00 0.00 0.00 0.00 0.00 0.00 0.00 0.00 0.00 0.00 0.00 0.00 0.00 0.00 0.03 0.12 0.22 0.12 0.02 0.03 0.03 0.04 0.03 0.03 0.06 0.05 0.01 0.00
0.00 0.00 0.00 0.00 0.00 0.00 0.00 0.00 0.00 0.00 0.00 0.00 0.00 0.00 0.00 0.00 0.00 0.00 0.00 0.00 0.00 0.00 0.00 0.00 0.00 0.00 0.00 0.01 0.00 0.00 0.00 0.00 0.00 0.00 0.00 0.01 0.03 0.06 0.06 0.00 0.01 0.01 0.02 0.00 0.00 0.02 0.01 0.00 0.00
0.00 0.00 0.00 0.00 0.00 0.00 0.00 0.00 0.00 0.00 0.00 0.00 0.00 0.00 0.00 0.00 0.00 0.00 0.00 0.00 0.00 0.00 0.00 0.00 0.00 0.00 0.01 0.00 0.00 0.00 0.00 0.00 0.00 0.00 0.00 0.02 0.00 0.01 0.01 0.01 0.01 0.00 0.00 0.00 0.00 0.00 0.00 0.00 0.00
0.00 0.00 0.00 0.00 0.00 0.00 0.00 0.00 0.00 0.00 0.00 0.00 0.00 0.00 0.00 0.00 0.00 0.00 0.00 0.00 0.00 0.00 0.00 0.00 0.00 0.00 0.00 0.00 0.01 0.00 0.00 0.00 0.00 0.00 0.00 0.00 0.00 0.00 0.00 0.00 0.00 0.00 0.00 0.00 0.00 0.00 0.00 0.00 0.00
0.00 0.00 0.00 0.00 0.00 0.00 0.00 0.00 0.00 0.00 0.00 0.00 0.00 0.00 0.00 0.00 0.00 0.00 0.00 0.00 0.00 0.00 0.00 0.00 0.00 0.00 0.00 0.00 0.01 0.00 0.00 0.00 0.00 0.00 0.00 0.00 0.00 0.00 0.00 0.00 0.00 0.00 0.01 0.02 0.03 0.01 0.00 0.00 0.00
0.00 0.00 0.00 0.00 0.00 0.00 0.00 0.00 0.00 0.00 0.00 0.00 0.00 0.00 0.00 0.00 0.00 0.00 0.00 0.00 0.00 0.00 0.00 0.00 0.00 0.00 0.00 0.00 0.01 0.00 0.00 0.00 0.00 0.00 0.00 0.00 0.00 0.00 0.00 0.00 0.00 0.00 0.01 0.00 0.00 0.00 0.00 0.00 0.00
0.00 0.00 0.00 0.00 0.00 0.00 0.00 0.00 0.00 0.00 0.00 0.00 0.00 0.00 0.00 0.00 0.00 0.00 0.00 0.00 0.00 0.00 0.00 0.00 0.00 0.00 0.02 0.02 0.00 0.00 0.00 0.00 0.00 0.00 0.00 0.00 0.00 0.00 0.00 0.00 0.00 0.00 0.00 0.00 0.00 0.01 0.01 0.00 0.00
0.00 0.00 0.00 0.00 0.00 0.00 0.00 0.00 0.00 0.00 0.00 0.00 0.00 0.00 0.00 0.00 0.00 0.00 0.00 0.00 0.00 0.00 0.00 0.00 0.00 0.00 0.01 0.06 0.02 0.00 0.01 0.00 0.00 0.00 0.01 0.02 0.01 0.01 0.00 0.00 0.00 0.01 0.03 0.02 0.04 0.03 0.05 0.04 0.02
0.00 0.00 0.00 0.00 0.00 0.00 0.00 0.00 0.00 0.00 0.00 0.00 0.00 0.00 0.00 0.00 0.00 0.00 0.00 0.00 0.00 0.00 0.00 0.00 0.00 0.00 0.01 0.01 0.02 0.01 0.01 0.00 0.00 0.02 0.07 0.02 0.01 0.03 0.03 0.09 0.03 0.03 0.00 0.00 0.02 0.01 0.00 0.00 0.00
0.00 0.00 0.00 0.00 0.00 0.00 0.00 0.00 0.00 0.00 0.00 0.00 0.00 0.00 0.00 0.00 0.00 0.00 0.00 0.00 0.00 0.00 0.00 0.00 0.00 0.01 0.01 0.00 0.00 0.00 0.00 0.00 0.03 0.01 0.00 0.01 0.02 0.01 0.03 0.02 0.01 0.01 0.00 0.00 0.00 0.00 0.00 0.00 0.00
0.00 0.00 0.00 0.00 0.00 0.00 0.00 0.00 0.00 0.00 0.00 0.00 0.00 0.00 0.00 0.00 0.00 0.00 0.00 0.00 0.00 0.00 0.00 0.00 0.00 0.00 0.00 0.00 0.00 0.00 0.00 0.00 0.00 0.00 0.01 0.02 0.00 0.01 0.01 0.00 0.00 0.00 0.00 0.00 0.00 0.00 0.00 0.00 0.02
0.00 0.00 0.00 0.00 0.00 0.00 0.00 0.00 0.00 0.00 0.00 0.00 0.00 0.00 0.00 0.00 0.00 0.00 0.00 0.00 0.00 0.00 0.00 0.00 0.00 0.00 0.00 0.00 0.00 0.00 0.00 0.00 0.00 0.00 0.00 0.00 0.00 0.00 0.00 0.00 0.00 0.00 0.00 0.00 0.00 0.00 0.00 0.00 0.01
0.00 0.00 0.00 0.00 0.00 0.00 0.00 0.00 0.00 0.00 0.00 0.00 0.00 0.00 0.00 0.00 0.00 0.00 0.00 0.00 0.00 0.00 0.00 0.00 0.00 0.00 0.00 0.00 0.00 0.00 0.00 0.00 0.00 0.00 0.00 0.00 0.00 0.00 0.00 0.00 0.00 0.00 0.00 0.00 0.00 0.00 0.00 0.01 0.00
0.00 0.00 0.00 0.00 0.00 0.00 0.00 0.00 0.00 0.00 0.00 0.00 0.00 0.00 0.00 0.00 0.00 0.00 0.00 0.00 0.00 0.00 0.00 0.00 0.00 0.00 0.00 0.00 0.00 0.00 0.00 0.00 0.00 0.00 0.00 0.00 0.00 0.00 0.00 0.00 0.00 0.00 0.00 0.00 0.00 0.00 0.00 0.00 0.01
0.00 0.00 0.00 0.00 0.00 0.00 0.00 0.00 0.00 0.00 0.00 0.00 0.00 0.00 0.00 0.00 0.00 0.00 0.00 0.00 0.00 0.00 0.00 0.00 0.00 0.00 0.00 0.00 0.00 0.00 0.00 0.00 0.00 0.00 0.00 0.00 0.00 0.00 0.00 0.00 0.00 0.00 0.00 0.00 0.00 0.00 0.00 0.00 0.00
0.00 0.00 0.00 0.00 0.00 0.00 0.00 0.00 0.00 0.00 0.00 0.00 0.00 0.00 0.00 0.00 0.00 0.00 0.00 0.00 0.00 0.00 0.00 0.00 0.00 0.00 0.00 0.00 0.00 0.00 0.00 0.00 0.00 0.00 0.00 0.00 0.00 0.00 0.00 0.00 0.00 0.00 0.00 0.00 0.00 0.00 0.00 0.00 0.00
0.00 0.00 0.00 0.00 0.00 0.00 0.00 0.00 0.00 0.00 0.00 0.00 0.00 0.00 0.00 0.00 0.00 0.00 0.00 0.00 0.00 0.00 0.00 0.00 0.00 0.00 0.00 0.00 0.00 0.00 0.00 0.00 0.00 0.00 0.00 0.00 0.00 0.00 0.00 0.00 0.00 0.00 0.00 0.00 0.00 0.00 0.00 0.00 0.00
0.00 0.00 0.00 0.00 0.00 0.00 0.00 0.00 0.00 0.00 0.00 0.00 0.00 0.00 0.00 0.00 0.00 0.00 0.00 0.00 0.00 0.00 0.00 0.00 0.00 0.00 0.00 0.00 0.00 0.00 0.00 0.00 0.00 0.00 0.00 0.00 0.00 0.00 0.00 0.00 0.00 0.00 0.00 0.00 0.00 0.00 0.00 0.00 0.00
0.00 0.00 0.00 0.00 0.00 0.00 0.00 0.00 0.00 0.00 0.00 0.00 0.00 0.00 0.00 0.00 0.00 0.00 0.00 0.00 0.00 0.00 0.00 0.00 0.00 0.00 0.00 0.00 0.00 0.00 0.00 0.00 0.00 0.00 0.00 0.00 0.00 0.00 0.00 0.00 0.00 0.00 0.00 0.00 0.00 0.00 0.00 0.00 0.00
0.00 0.00 0.00 0.00 0.00 0.00 0.00 0.00 0.00 0.00 0.00 0.00 0.00 0.00 0.00 0.00 0.00 0.00 0.00 0.00 0.00 0.00 0.00 0.00 0.00 0.00 0.00 0.00 0.00 0.00 0.00 0.00 0.00 0.00 0.00 0.00 0.00 0.00 0.00 0.00 0.00 0.00 0.00 0.00 0.00 0.00 0.00 0.00 0.00
0.00 0.00 0.00 0.00 0.00 0.00 0.00 0.00 0.00 0.00 0.00 0.00 0.00 0.00 0.00 0.00 0.00 0.00 0.00 0.00 0.00 0.00 0.01 0.03 0.00 0.01 0.01 0.00 0.00 0.00 0.00 0.00 0.00 0.00 0.00 0.00 0.00 0.00 0.00 0.00 0.00 0.00 0.00 0.00 0.00 0.00 0.00 0.00 0.01
MSLP
1005.89 1006.10 1006.88 1006.77 1007.24 1006.34 1006.17 1006.36 1006.21 1008.12 1009.27 1009.32 1009.74 1009.44 1009.75 1009.95 1010.63 1013.21 1013.51 1013.82 1014.46 1015.03 1015.23 1015.55 1015.81 1016.03 1016.08 1016.28 1016.56 1016.83 1017.14 1017.23 1017.22 1017.36 1017.41 1017.57 1018.02 1018.19 1018.34 1018.25 1018.33 1018.49 1018.60 1018.61 1018.79 1018.80 1018.88 1018.98 1018.84
1005.26 1005.47 1006.46 1006.13 1006.00 1005.33 1005.69 1005.46 1005.56 1006.53 1007.66 1008.88 1009.20 1009.12 1009.57 1011.01 1011.03 1012.48 1013.38 1013.84 1014.13 1014.74 1015.26 1015.70 1016.03 1016.03 1016.27 1016.50 1016.83 1017.01 1017.32 1017.43 1017.50 1017.56 1017.84 1018.06 1018.23 1018.27 1018.43 1018.41 1018.49 1018.61 1018.73 1018.81 1018.85 1018.97 1018.99 1019.14 1019.06
1005.18 1004.93 1005.24 1005.36 1004.58 1004.64 1004.98 1004.89 1005.24 1006.23 1007.59 1008.04 1008.52 1008.83 1010.15 1011.34 1011.95 1012.37 1013.02 1013.51 1014.06 1014.81 1015.33 1015.77 1016.08 1016.12 1016.30 1016.69 1016.96 1017.13 1017.33 1017.54 1017.67 1017.78 1018.06 1018.17 1018.33 1018.41 1018.45 1018.49 1018.64 1018.84 1018.80 1018.81 1018.80 1019.00 1019.10 1019.08 1019.16
1004.34 1004.74 1004.55 1004.03 1004.18 1003.95 1004.26 1004.58 1005.00 1006.10 1006.97 1007.67 1008.35 1009.59 1010.85 1011.50 1011.76 1012.64 1013.20 1013.79 1014.41 1015.03 1015.44 1015.83 1016.06 1016.19 1016.44 1016.61 1016.92 1017.20 1017.38 1017.69 1017.92 1018.08 1018.21 1018.43 1018.48 1018.59 1018.67 1018.80 1018.92 1019.00 1018.95 1018.89 1018.88 1019.04 1019.24 1019.11 1019.19
1004.40 1005.59 1005.65 1004.29 1004.02 1003.78 1003.69 1003.87 1004.88 1006.22 1007.16 1008.18 1009.01 1010.62 1011.43 1012.02 1012.28 1012.73 1013.44 1013.94 1014.57 1015.25 1015.62 1015.94 1016.18 1016.43 1016.60 1016.88 1017.11 1017.34 1017.57 1017.90 1018.12 1018.35 1018.54 1018.61 1018.65 1018.78 1018.87 1018.98 1019.08 1019.07 1018.97 1018.87 1018.99 1019.18 1019.22 1019.22 1019.18
1005.46 1006.58 1006.68 1005.37 1004.54 1003.91 1003.75 1004.09 1005.13 1006.44 1007.57 1008.70 1009.69 1010.41 1011.85 1012.42 1012.54 1013.01 1013.44 1013.99 1014.47 1015.19 1015.61 1015.89 1016.22 1016.41 1016.69 1017.05 1017.29 1017.47 1017.79 1017.98 1018.28 1018.49 1018.69 1018.72 1018.71 1018.73 1018.86 1018.95 1019.00 1019.13 1019.05 1018.93 1018.92 1019.09 1019.12 1019.19 1019.06
1007.37 1007.25 1007.55 1005.59 1005.12 1004.44 1004.31 1004.10 1005.27 1006.49 1007.69 1008.42 1009.52 1010.49 1011.83 1012.16 1012.45 1012.79 1013.34 1013.94 1014.51 1015.09 1015.60 1016.03 1016.35 1016.56 1016.81 1017.13 1017.39 1017.70 1017.92 1018.11 1018.45 1018.77 1018.77 1018.71 1018.68 1018.80 1018.79 1018.94 1019.02 1019.00 1019.11 1018.93 1018.81 1018.92 1019.02 1019.08 1019.02
1006.55 1007.86 1007.68 1006.84 1006.15 1004.99 1004.41 1004.29 1005.01 1006.13 1007.49 1008.39 1008.87 1010.42 1011.07 1011.60 1012.34 1012.87 1013.40 1014.05 1014.65 1015.25 1015.69 1016.19 1016.46 1016.65 1016.97 1017.24 1017.48 1017.78 1018.01 1018.30 1018.62 1018.85 1018.76 1018.73 1018.67 1018.53 1018.73 1019.00 1019.02 1018.98 1019.03 1018.97 1018.80 1018.89 1018.97 1018.99 1018.88
1004.80 1006.10 1007.39 1007.70 1006.33 1005.70 1004.55 1004.96 1005.39 1005.85 1007.21 1008.07 1008.27 1009.34 1010.32 1011.33 1012.23 1012.95 1013.83 1014.36 1014.86 1015.45 1015.75 1015.93 1016.37 1016.70 1016.95 1017.28 1017.52 1017.77 1018.04 1018.34 1018.62 1018.78 1018.68 1018.67 1018.71 1018.69 1018.78 1018.80 1018.90 1018.84 1018.78 1018.76 1018.54 1018.73 1018.65 1018.64 1018.71
1004.43 1004.30 1003.88 1005.18 1005.27 1004.96 1005.19 1005.85 1006.53 1006.56 1007.44 1008.41 1008.98 1009.72 1010.49 1011.27 1012.29 1012.97 1013.69 1014.40 1014.94 1015.32 1015.65 1015.82 1016.08 1016.36 1016.79 1016.96 1017.31 1017.53 1017.77 1018.07 1018.39 1018.59 1018.65 1018.72 1018.79 1018.69 1018.47 1018.63 1018.71 1018.69 1018.46 1018.44 1018.28 1018.34 1018.32 1018.39 1018.47
1002.83 1002.95 1003.04 1003.53 1004.66 1005.34 1005.73 1006.40 1006.64 1007.12 1007.68 1007.93 1008.80 1009.72 1010.40 1011.38 1012.11 1012.81 1013.53 1014.11 1014.49 1014.94 1015.23 1015.50 1015.73 1016.26 1016.63 1017.08 1017.30 1017.55 1017.70 1017.90 1018.12 1018.38 1018.59 1018.66 1018.70 1018.77 1018.84 1018.86 1018.86 1018.59 1018.38 1018.33 1018.21 1018.14 1018.13 1018.24 1018.26
1000.87 1001.11 1001.74 1003.40 1004.01 1005.46 1006.12 1006.80 1006.77 1006.68 1008.24 1008.09 1009.02 1009.86 1010.35 1011.15 1011.98 1012.31 1012.89 1013.79 1014.26 1014.73 1015.09 1015.31 1015.60 1016.12 1016.47 1016.56 1017.02 1017.27 1017.44 1017.69 1017.88 1018.07 1018.09 1018.51 1018.54 1018.63 1018.59 1018.73 1018.59 1018.42 1018.25 1018.18 1018.23 1018.07 1017.95 1017.98 1017.90
1000.10 1000.81 1001.63 1002.74 1003.84 1005.23 1006.22 1007.20 1007.54 1007.79 1008.09 1008.42 1009.28 1010.07 1010.69 1011.18 1011.61 1012.32 1012.72 1013.49 1013.94 1014.48 1014.92 1015.24 1015.63 1016.03 1016.46 1016.75 1016.80 1016.96 1016.92 1017.11 1017.20 1017.49 1017.66 1017.86 1018.21 1018.37 1018.17 1018.31 1018.21 1018.09 1018.17 1018.18 1018.05 1018.03 1018.08 1017.99 1017.85
1000.02 1000.47 1001.37 1002.19 1003.17 1004.34 1005.45 1007.31 1007.36 1008.04 1008.20 1008.73 1009.58 1010.31 1010.85 1011.22 1011.66 1012.19 1012.73 1013.43 1013.84 1014.33 1014.84 1015.21 1015.56 1015.57 1015.87 1016.34 1016.35 1016.47 1016.53 1016.72 1016.81 1017.18 1017.32 1017.41 1017.63 1017.95 1018.01 1018.14 1018.21 1018.28 1018.24 1018.18 1018.15 1018.10 1018.02 1017.98 1017.92
999.95 1000.80 1001.54 1002.23 1002.96 1004.14 1004.86 1007.28 1007.75 1007.96 1008.24 1008.96 1009.66 1010.27 1010.71 1011.04 1011.49 1012.07 1012.66 1013.22 1013.67 1014.12 1014.83 1015.13 1015.33 1015.34 1015.80 1016.12 1016.27 1016.48 1016.62 1016.70 1016.74 1016.93 1016.97 1017.02 1017.24 1017.41 1017.72 1017.90 1018.08 1018.17 1018.05 1017.99 1018.03 1018.05 1018.00 1018.03 1017.68
1000.30 1000.98 1002.07 1002.65 1003.17 1004.32 1004.51 1006.82 1007.60 1007.90 1008.48 1009.04 1009.53 1009.84 1010.27 1010.80 1011.28 1011.77 1012.35 1012.89 1013.46 1013.82 1014.17 1014.69 1015.03 1015.41 1015.73 1016.11 1016.30 1016.53 1016.59 1016.60 1016.65 1016.62 1016.72 1016.73 1016.78 1017.10 1017.43 1017.76 1017.87 1017.83 1017.80 1017.84 1017.93 1018.22 1018.19 1018.09 1017.98
1000.57 1001.40 1002.35 1003.52 1003.03 1003.71 1004.42 1006.51 1006.79 1007.52 1008.07 1008.59 1008.92 1009.34 1009.89 1010.45 1011.03 1011.52 1011.96 1012.58 1013.10 1013.54 1013.95 1014.45 1014.84 1015.29 1015.64 1016.00 1016.27 1016.48 1016.43 1016.49 1016.55 1016.59 1016.50 1016.47 1016.68 1016.88 1017.33 1017.54 1017.63 1017.70 1017.83 1017.89 1018.04 1017.98 1018.13 1018.15 1018.04
1000.94 1001.42 1002.26 1002.67 1003.45 1003.64 1004.52 1005.74 1006.41 1007.05 1007.57 1007.90 1008.32 1008.97 1009.54 1010.03 1010.66 1011.12 1011.71 1012.11 1012.66 1013.10 1013.74 1014.14 1014.56 1015.08 1015.63 1016.01 1016.28 1016.44 1016.60 1016.42 1016.38 1016.45 1016.63 1016.69 1016.80 1016.72 1017.14 1017.48 1017.55 1017.61 1017.94 1017.97 1017.98 1018.08 1017.98 1018.00 1017.95
1000.12 1000.67 1001.72 1002.82 1002.86 1003.56 1004.54 1005.64 1006.18 1006.75 1007.22 1007.68 1008.06 1008.31 1008.91 1009.49 1010.25 1010.85 1011.45 1011.98 1012.52 1013.02 1013.63 1014.11 1014.49 1014.91 1015.50 1016.05 1016.54 1016.64 1016.72 1016.56 1016.51 1016.30 1016.15 1016.37 1016.49 1016.58 1016.96 1017.26 1017.39 1017.57 1017.92 1017.96 1017.95 1017.83 1017.89 1018.10 1017.94
999.47 1000.43 1000.62 1001.01 1002.23 1003.03 1004.39 1005.67 1006.15 1007.00 1007.55 1006.91 1007.52 1007.85 1008.34 1009.01 1010.01 1010.65 1011.23 1011.79 1012.31 1012.87 1013.45 1013.93 1014.37 1014.78 1015.35 1015.75 1015.96 1016.22 1016.38 1016.31 1016.13 1015.98 1016.03 1016.31 1016.44 1016.54 1016.83 1017.06 1017.52 1017.47 1017.82 1017.91 1017.99 1017.97 1018.20 1018.13 1017.99
998.95 999.52 1000.09 1000.51 1001.80 1002.77 1004.49 1006.45 1006.82 1006.30 1005.60 1006.27 1006.35 1007.15 1007.88 1008.38 1009.40 1010.34 1010.96 1011.49 1012.10 1012.83 1013.28 1013.74 1014.15 1014.51 1014.97 1015.33 1015.73 1016.07 1016.22 1016.24 1016.29 1016.32 1016.29 1016.37 1016.47 1016.57 1016.78 1016.97 1017.19 1017.56 1017.84 1018.03 1018.15 1018.12 1018.32 1018.44 1018.17
998.41 998.57 998.89 1000.19 1001.30 1003.70 1003.73 1006.35 1007.09 1006.86 1006.12 1005.76 1005.65 1006.31 1006.91 1008.04 1008.70 1009.52 1010.49 1011.08 1011.72 1012.41 1012.89 1013.37 1013.95 1014.35 1014.73 1015.09 1015.56 1015.98 1016.20 1016.54 1016.38 1016.43 1016.50 1016.57 1016.49 1016.60 1016.66 1016.81 1017.18 1017.54 1017.71 1018.02 1018.13 1018.17 1018.26 1018.42 1018.55
998.02 998.32 999.06 999.97 1001.36 1002.09 1003.21 1004.17 1004.92 1006.33 1006.00 1005.14 1005.26 1005.60 1006.17 1006.89 1007.72 1008.53 1009.51 1010.48 1011.20 1011.89 1012.49 1013.04 1013.71 1014.20 1014.54 1014.97 1015.22 1015.85 1016.15 1016.28 1016.40 1016.59 1016.60 1016.37 1016.43 1016.34 1016.48 1016.89 1017.09 1017.51 1017.60 1017.82 1017.92 1017.99 1018.09 1018.20 1018.39
997.73 998.49 999.51 1000.23 1001.52 1002.36 1002.55 1003.41 1004.88 1004.55 1003.69 1003.42 1003.26 1004.62 1004.93 1005.88 1006.83 1007.54 1008.34 1009.50 1010.47 1011.22 1011.99 1012.79 1013.66 1014.22 1014.48 1014.68 1015.09 1015.38 1015.88 1016.22 1016.50 1016.59 1016.62 1016.65 1016.65 1016.77 1016.67 1016.90 1017.00 1017.22 1017.38 1017.60 1017.66 1017.83 1017.93 1017.97 1018.02
997.81 999.23 1000.61 1001.89 1002.42 1002.55 1001.99 1002.30 1001.90 1001.90 1001.94 1002.26 1002.98 1003.26 1003.95 1004.53 1005.60 1006.58 1007.42 1008.56 1009.79 1010.63 1011.46 1012.35 1013.31 1014.25 1014.49 1014.72 1015.00 1015.21 1015.58 1015.83 1016.21 1016.34 1016.60 1016.82 1016.84 1016.94 1016.90 1016.78 1017.12 1017.36 1017.20 1017.25 1017.31 1017.56 1017.65 1017.66 1017.82
998.06 999.28 1000.72 1001.97 1002.69 1002.40 1001.27 1001.07 999.98 999.90 1000.10 1001.05 1001.70 1002.07 1002.71 1004.03 1004.67 1005.79 1006.80 1007.80 1008.71 1009.80 1010.56 1011.58 1012.67 1013.75 1014.35 1014.71 1014.98 1015.13 1015.36 1015.66 1015.94 1016.10 1016.36 1016.39 1016.56 1016.69 1016.59 1016.74 1016.80 1016.90 1016.96 1017.04 1017.09 1017.30 1017.39 1017.47 1017.59
997.70 998.58 999.57 1001.34 1001.88 1002.24 1000.90 999.24 998.71 999.11 1000.04 1000.82 1001.35 1001.95 1002.31 1003.17 1004.27 1005.60 1006.18 1007.13 1008.14 1009.13 1010.10 1010.74 1011.81 1012.71 1013.80 1014.45 1014.77 1014.98 1015.25 1015.53 1015.91 1015.94 1016.02 1016.19 1016.33 1016.44 1016.48 1016.37 1016.69 1016.61 1016.66 1016.74 1017.01 1017.17 1017.25 1017.31 1017.33
996.66 997.92 999.58 1000.96 1002.49 1002.62 1001.26 1000.29 999.79 999.59 999.73 1000.43 1001.33 1001.87 1002.17 1002.81 1003.77 1003.98 1005.78 1006.68 1007.62 1008.53 1009.32 1010.21 1011.09 1011.82 1012.73 1013.61 1014.27 1014.64 1015.02 1015.23 1015.42 1015.68 1015.84 1015.95 1016.08 1016.20 1016.27 1016.31 1016.43 1016.48 1016.48 1016.60 1016.73 1016.74 1016.79 1016.92 1017.04
996.53 997.52 999.08 1000.51 1001.75 1002.35 1001.77 1001.33 999.87 999.74 1000.05 1000.26 1000.53 1001.09 1001.74 1002.78 1003.61 1004.33 1005.53 1006.43 1006.92 1007.83 1008.87 1009.63 1010.54 1011.29 1012.13 1012.84 1013.49 1014.17 1014.65 1014.89 1015.04 1015.25 1015.56 1015.70 1015.87 1015.98 1016.06 1016.10 1016.20 1016.25 1016.35 1016.43 1016.43 1016.38 1016.39 1016.55 1016.64
995.65 996.86 998.41 1000.32 1001.40 1001.53 1001.31 1000.60 998.76 999.19 999.58 999.98 1000.43 1000.90 1001.08 1002.01 1003.12 1003.58 1004.02 1005.46 1006.72 1007.31 1008.35 1008.96 1009.80 1010.57 1011.55 1012.23 1012.70 1013.64 1014.15 1014.51 1014.92 1015.05 1015.21 1015.45 1015.57 1015.63 1015.71 1015.76 1015.91 1016.03 1016.02 1015.95 1015.91 1015.88 1015.85 1016.05 1016.25
Thickness
5853 5849 5844 5830 5787 5795 5786 5789 5808 5782 5774 5789 5789 5782 5784 5788 5777 5744 5783 5786 5780 5777 5773 5770 5770 5769 5770 5769 5767 5766 5762 5762 5764 5763 5763 5763 5757 5757 5756 5758 5758 5758 5756 5756 5753 5753 5752 5751 5754
5863 5859 5843 5821 5789 5780 5778 5809 5799 5802 5802 5800 5801 5800 5792 5774 5789 5784 5781 5787 5785 5780 5775 5772 5770 5772 5772 5770 5768 5767 5764 5764 5764 5764 5761 5759 5758 5758 5758 5759 5759 5758 5757 5757 5756 5755 5753 5752 5754
5867 5866 5830 5807 5806 5788 5782 5812 5813 5810 5804 5806 5801 5810 5792 5777 5787 5790 5795 5794 5787 5782 5778 5775 5773 5774 5774 5771 5769 5768 5768 5766 5766 5765 5762 5761 5760 5760 5760 5762 5761 5759 5759 5759 5759 5757 5754 5755 5754
5866 5855 5844 5817 5801 5818 5814 5822 5826 5814 5816 5818 5809 5787 5794 5799 5796 5796 5798 5794 5788 5783 5780 5777 5776 5776 5774 5775 5772 5771 5770 5767 5766 5765 5763 5761 5762 5760 5760 5760 5760 5759 5759 5759 5760 5758 5755 5756 5755
5862 5835 5801 5814 5815 5828 5835 5838 5832 5813 5810 5808 5803 5781 5780 5794 5802 5802 5797 5795 5789 5785 5781 5779 5778 5776 5776 5774 5773 5772 5772 5769 5767 5765 5762 5761 5761 5761 5761 5761 5760 5760 5761 5762 5760 5757 5757 5757 5757
5823 5820 5786 5800 5812 5829 5837 5842 5830 5815 5810 5806 5793 5788 5780 5797 5798 5799 5800 5795 5792 5787 5784 5782 5780 5779 5777 5775 5774 5773 5770 5769 5766 5763 5761 5762 5764 5765 5764 5763 5762 5760 5760 5763 5762 5759 5759 5757 5758
5798 5796 5774 5819 5815 5820 5828 5847 5826 5816 5807 5804 5807 5782 5788 5795 5803 5806 5803 5799 5794 5789 5786 5783 5781 5779 5777 5775 5774 5771 5770 5768 5764 5760 5761 5764 5766 5766 5766 5764 5762 5761 5759 5762 5763 5761 5759 5758 5759
5822 5801 5789 5801 5807 5813 5839 5844 5843 5828 5811 5824 5821 5783 5783 5800 5807 5806 5804 5799 5795 5790 5787 5784 5782 5781 5778 5777 5774 5772 5770 5767 5763 5760 5762 5764 5768 5768 5765 5765 5763 5762 5759 5760 5763 5760 5758 5758 5759
5860 5800 5783 5777 5796 5816 5847 5835 5846 5848 5824 5822 5826 5814 5812 5814 5810 5802 5795 5794 5792 5790 5789 5787 5784 5782 5780 5778 5776 5773 5771 5768 5764 5762 5763 5765 5768 5768 5768 5767 5763 5762 5761 5761 5763 5762 5760 5759 5759
5830 5815 5828 5830 5831 5831 5843 5836 5825 5831 5822 5812 5812 5818 5819 5814 5804 5797 5793 5788 5788 5788 5790 5790 5787 5786 5783 5781 5779 5777 5775 5772 5768 5765 5765 5765 5766 5769 5769 5767 5764 5762 5761 5763 5764 5762 5762 5760 5760
5849 5830 5853 5855 5850 5842 5839 5835 5838 5822 5813 5820 5809 5809 5815 5809 5804 5800 5797 5795 5793 5794 5795 5795 5793 5789 5786 5783 5780 5778 5777 5775 5772 5768 5764 5763 5764 5765 5763 5762 5760 5761 5762 5764 5762 5762 5763 5760 5759
5859 5876 5869 5853 5858 5843 5833 5835 5834 5832 5816 5835 5825 5819 5816 5810 5805 5806 5804 5799 5798 5796 5796 5797 5795 5791 5788 5788 5784 5781 5779 5776 5774 5770 5768 5765 5763 5760 5761 5761 5761 5761 5761 5760 5759 5761 5761 5760 5759
5873 5874 5875 5863 5853 5844 5843 5823 5822 5823 5834 5838 5827 5820 5813 5812 5810 5810 5809 5805 5802 5798 5798 5797 5796 5793 5789 5787 5786 5784 5783 5781 5780 5776 5773 5769 5766 5763 5763 5761 5761 5760 5759 5757 5757 5757 5755 5756 5757
5887 5883 5873 5869 5861 5859 5841 5825 5831 5828 5838 5830 5821 5814 5814 5814 5813 5811 5808 5803 5802 5801 5798 5798 5796 5795 5793 5790 5789 5788 5786 5784 5782 5779 5775 5772 5769 5766 5764 5761 5759 5757 5756 5755 5754 5753 5753 5752 5752
5889 5862 5865 5863 5861 5849 5855 5818 5817 5834 5835 5822 5817 5815 5816 5817 5818 5812 5811 5807 5806 5804 5801 5800 5799 5798 5795 5793 5790 5788 5786 5783 5783 5780 5778 5776 5773 5770 5766 5762 5758 5756 5755 5753 5752 5751 5750 5749 5750
5868 5861 5824 5851 5854 5847 5845 5796 5823 5834 5825 5816 5817 5819 5820 5819 5819 5819 5817 5813 5811 5808 5806 5804 5803 5799 5796 5793 5789 5786 5785 5784 5782 5780 5778 5776 5775 5771 5767 5763 5760 5758 5757 5755 5753 5749 5746 5746 5745
5853 5817 5822 5827 5858 5852 5840 5806 5830 5836 5829 5821 5823 5824 5822 5820 5820 5822 5821 5817 5815 5812 5809 5806 5804 5801 5797 5794 5789 5787 5786 5784 5783 5780 5779 5777 5775 5772 5768 5764 5761 5757 5755 5753 5750 5748 5745 5742 5741
5821 5829 5827 5826 5843 5850 5833 5821 5834 5835 5831 5828 5831 5827 5823 5822 5820 5823 5823 5823 5819 5816 5812 5809 5806 5802 5799 5795 5791 5787 5785 5784 5783 5781 5778 5776 5773 5772 5768 5763 5760 5757 5753 5751 5748 5744 5743 5741 5739
5858 5848 5835 5838 5856 5842 5829 5823 5829 5834 5833 5825 5826 5829 5828 5826 5827 5827 5824 5823 5820 5817 5811 5808 5806 5803 5797 5791 5786 5784 5781 5782 5781 5781 5781 5776 5774 5771 5767 5763 5759 5755 5751 5748 5747 5745 5741 5735 5734
5862 5846 5838 5857 5856 5844 5830 5819 5832 5824 5822 5834 5830 5831 5833 5830 5826 5824 5822 5821 5818 5815 5812 5809 5806 5803 5799 5794 5791 5787 5784 5782 5782 5781 5778 5774 5771 5769 5764 5760 5756 5753 5748 5745 5742 5739 5734 5730 5729
5855 5851 5848 5845 5853 5854 5829 5802 5802 5828 5839 5842 5845 5839 5835 5833 5826 5822 5820 5820 5819 5813 5810 5807 5805 5803 5799 5796 5791 5787 5785 5783 5779 5777 5775 5771 5767 5765 5761 5757 5753 5748 5744 5739 5736 5733 5727 5721 5720
5833 5877 5877 5863 5835 5783 5836 5764 5791 5806 5818 5835 5841 5837 5836 5832 5830 5826 5820 5817 5817 5814 5813 5810 5805 5801 5799 5796 5790 5784 5778 5772 5775 5773 5771 5769 5766 5762 5758 5754 5748 5743 5738 5734 5730 5728 5723 5718 5710
5851 5877 5867 5863 5841 5834 5825 5795 5808 5807 5804 5826 5831 5836 5839 5839 5837 5831 5827 5822 5820 5818 5813 5810 5805 5800 5798 5793 5789 5781 5775 5774 5771 5767 5765 5765 5763 5760 5755 5748 5743 5738 5733 5729 5726 5722 5717 5712 5706
5883 5866 5858 5855 5832 5784 5821 5806 5783 5804 5827 5844 5850 5838 5843 5841 5842 5841 5839 5831 5823 5821 5816 5809 5802 5797 5794 5791 5786 5781 5775 5770 5765 5764 5761 5758 5756 5753 5750 5745 5742 5735 5730 5724 5720 5716 5711 5706 5703
5865 5834 5781 5775 5777 5774 5829 5814 5808 5845 5856 5852 5840 5846 5843 5849 5844 5843 5839 5831 5825 5821 5814 5808 5799 5789 5788 5786 5782 5779 5774 5770 5765 5762 5757 5752 5749 5746 5744 5740 5734 5728 5723 5718 5714 5710 5705 5701 5696
5837 5823 5776 5760 5765 5791 5838 5807 5827 5869 5874 5867 5863 5861 5862 5843 5844 5834 5833 5831 5829 5823 5819 5808 5798 5788 5784 5780 5777 5776 5772 5767 5763 5759 5754 5750 5744 5740 5739 5734 5729 5723 5718 5713 5708 5704 5700 5695 5690
5836 5814 5845 5808 5822 5791 5819 5849 5865 5871 5862 5858 5855 5854 5853 5853 5841 5831 5832 5830 5830 5822 5817 5811 5798 5792 5783 5777 5774 5771 5768 5763 5757 5754 5751 5745 5741 5737 5732 5728 5723 5718 5713 5708 5703 5697 5692 5688 5683
5849 5862 5810 5795 5771 5764 5803 5818 5811 5835 5841 5849 5844 5843 5847 5845 5840 5839 5829 5832 5832 5822 5820 5813 5802 5795 5786 5779 5772 5769 5764 5760 5755 5750 5745 5740 5736 5732 5727 5723 5719 5713 5709 5703 5698 5692 5687 5682 5676
5840 5827 5830 5817 5799 5769 5773 5791 5848 5844 5846 5848 5856 5856 5851 5846 5840 5832 5831 5832 5828 5829 5817 5810 5801 5793 5785 5779 5772 5765 5758 5756 5752 5746 5739 5735 5730 5726 5722 5718 5712 5707 5701 5696 5691 5686 5681 5674 5668
5859 5837 5826 5781 5792 5802 5789 5795 5866 5859 5857 5852 5850 5851 5860 5856 5846 5847 5844 5831 5824 5825 5810 5808 5803 5793 5783 5778 5772 5761 5755 5751 5744 5739 5734 5730 5725 5723 5718 5714 5707 5700 5695 5691 5686 5681 5677 5669 5661